• în România
  • Lista ţărilor
  • Pe 7 zile
  • Temperatura apei
  • Hartă satelitară
  • Meteo pe hartă
  • Widget-uri
  • user-avatar
    Intrare

    Meteo pe oră la Rechytsa

    Astăzi, 25 Februarie, Duminică

    Timp Temperatura Precipitaţii Vânt Presiune Umiditate
    00:00 -18°C° 0 mm 3 m/s 757 mmHg 94%
    01:00 -19°C° 0 mm 3 m/s 757 mmHg 95%
    02:00 -18°C° 0 mm 2 m/s 757 mmHg 95%
    03:00 -19°C° 0 mm 2 m/s 757 mmHg 96%
    04:00 -19°C° 0 mm 2 m/s 757 mmHg 96%
    05:00 -20°C° 0 mm 2 m/s 757 mmHg 97%
    06:00 -20°C° 0 mm 2 m/s 757 mmHg 97%
    07:00 -20°C° 0 mm 2 m/s 757 mmHg 97%
    08:00 -20°C° 0 mm 2 m/s 758 mmHg 96%
    09:00 -18°C° 0 mm 2 m/s 758 mmHg 94%
    10:00 -17°C° 0 mm 2 m/s 758 mmHg 92%
    11:00 -15°C° 0 mm 2 m/s 758 mmHg 90%
    12:00 -14°C° 0 mm 2 m/s 758 mmHg 88%
    13:00 -14°C° 0 mm 2 m/s 758 mmHg 86%
    14:00 -13°C° 0 mm 2 m/s 757 mmHg 84%
    15:00 -13°C° 0 mm 2 m/s 757 mmHg 86%
    16:00 -14°C° 0 mm 2 m/s 757 mmHg 87%
    17:00 -14°C° 0 mm 2 m/s 757 mmHg 89%
    18:00 -15°C° 0 mm 2 m/s 757 mmHg 91%
    19:00 -17°C° 0 mm 2 m/s 757 mmHg 92%
    20:00 -18°C° 0 mm 2 m/s 757 mmHg 94%
    21:00 -18°C° 0 mm 2 m/s 758 mmHg 95%
    22:00 -19°C° 0 mm 2 m/s 758 mmHg 95%
    23:00 -20°C° 0 mm 2 m/s 758 mmHg 96%

    Mâine, 26 Februarie, Luni

    Timp Temperatura Precipitaţii Vânt Presiune Umiditate
    00:00 -20°C° 0 mm 2 m/s 758 mmHg 96%
    01:00 -19°C° 0 mm 1 m/s 758 mmHg 97%
    02:00 -19°C° 0 mm 1 m/s 758 mmHg 97%
    03:00 -19°C° 0 mm 1 m/s 758 mmHg 98%
    04:00 -20°C° 0 mm 1 m/s 758 mmHg 98%
    05:00 -20°C° 0 mm 1 m/s 758 mmHg 98%
    06:00 -20°C° 0 mm 1 m/s 758 mmHg 98%
    07:00 -20°C° 0 mm 1 m/s 758 mmHg 97%
    08:00 -19°C° 0 mm 1 m/s 758 mmHg 97%
    09:00 -18°C° 0 mm 1 m/s 758 mmHg 94%
    10:00 -16°C° 0 mm 1 m/s 758 mmHg 90%
    11:00 -14°C° 0 mm 1 m/s 758 mmHg 87%
    12:00 -14°C° 0 mm 1 m/s 758 mmHg 85%
    13:00 -13°C° 0 mm 1 m/s 758 mmHg 83%
    14:00 -12°C° 0 mm 1 m/s 758 mmHg 81%
    15:00 -13°C° 0 mm 1 m/s 758 mmHg 83%
    16:00 -13°C° 0 mm 1 m/s 758 mmHg 85%
    17:00 -14°C° 0 mm 1 m/s 757 mmHg 88%
    18:00 -15°C° 0 mm 1 m/s 758 mmHg 89%
    19:00 -16°C° 0 mm 1 m/s 758 mmHg 91%
    20:00 -18°C° 0 mm 1 m/s 758 mmHg 93%
    21:00 -18°C° 0 mm 1 m/s 758 mmHg 94%
    22:00 -19°C° 0 mm 1 m/s 758 mmHg 94%
    23:00 -19°C° 0 mm 1 m/s 758 mmHg 95%

    Poimâine, 27 Februarie, Marţi

    Timp Temperatura Precipitaţii Vânt Presiune Umiditate
    00:00 -19°C° 0 mm 1 m/s 758 mmHg 96%
    01:00 -23°C° 0 mm 2 m/s 759 mmHg 96%
    02:00 -23°C° 0 mm 2 m/s 759 mmHg 97%
    03:00 -23°C° 0 mm 2 m/s 759 mmHg 97%
    04:00 -23°C° 0 mm 2 m/s 759 mmHg 97%
    05:00 -24°C° 0 mm 2 m/s 758 mmHg 97%
    06:00 -24°C° 0 mm 3 m/s 759 mmHg 97%
    07:00 -24°C° 0 mm 3 m/s 759 mmHg 96%
    08:00 -24°C° 0 mm 3 m/s 759 mmHg 96%
    09:00 -22°C° 0 mm 3 m/s 760 mmHg 94%
    10:00 -22°C° 0 mm 4 m/s 760 mmHg 92%
    11:00 -19°C° 0 mm 4 m/s 760 mmHg 90%
    12:00 -18°C° 0 mm 4 m/s 760 mmHg 88%
    13:00 -18°C° 0 mm 5 m/s 759 mmHg 87%
    14:00 -17°C° 0 mm 5 m/s 759 mmHg 85%
    15:00 -17°C° 0 mm 6 m/s 759 mmHg 86%
    16:00 -17°C° 0 mm 6 m/s 759 mmHg 86%
    17:00 -17°C° 0 mm 6 m/s 759 mmHg 86%
    18:00 -17°C° 0 mm 6 m/s 759 mmHg 86%
    19:00 -17°C° 0 mm 6 m/s 759 mmHg 86%
    20:00 -19°C° 0 mm 7 m/s 759 mmHg 85%
    21:00 -19°C° 0,1 mm 7 m/s 759 mmHg 86%
    22:00 -19°C° 0,1 mm 7 m/s 759 mmHg 86%
    23:00 -20°C° 0,1 mm 7 m/s 759 mmHg 87%

    28 Februarie, Miercuri

    Timp Temperatura Precipitaţii Vânt Presiune Umiditate
    00:00 -20°C° 0,3 mm 7 m/s 759 mmHg 88%
    01:00 -20°C° 0,3 mm 7 m/s 758 mmHg 89%
    02:00 -20°C° 0,3 mm 7 m/s 758 mmHg 90%
    03:00 -20°C° 0,4 mm 7 m/s 758 mmHg 90%
    04:00 -20°C° 0,4 mm 7 m/s 758 mmHg 90%
    05:00 -20°C° 0,4 mm 7 m/s 757 mmHg 91%
    06:00 -20°C° 0,3 mm 7 m/s 757 mmHg 90%
    07:00 -20°C° 0,3 mm 7 m/s 757 mmHg 90%
    08:00 -20°C° 0,3 mm 7 m/s 757 mmHg 90%
    09:00 -19°C° 0,2 mm 7 m/s 757 mmHg 89%
    10:00 -19°C° 0,2 mm 7 m/s 757 mmHg 88%
    11:00 -18°C° 0,2 mm 7 m/s 757 mmHg 88%
    12:00 -17°C° 0,2 mm 6 m/s 756 mmHg 87%
    13:00 -16°C° 0,2 mm 6 m/s 756 mmHg 87%
    14:00 -16°C° 0,2 mm 6 m/s 756 mmHg 87%
    15:00 -16°C° 0,1 mm 6 m/s 756 mmHg 87%
    16:00 -16°C° 0,1 mm 6 m/s 756 mmHg 88%
    17:00 -15°C° 0,1 mm 5 m/s 756 mmHg 88%
    18:00 -15°C° 0,1 mm 5 m/s 756 mmHg 89%
    19:00 -15°C° 0,1 mm 5 m/s 756 mmHg 89%
    20:00 -17°C° 0,1 mm 5 m/s 756 mmHg 90%
    21:00 -17°C° 0,1 mm 5 m/s 756 mmHg 90%
    22:00 -17°C° 0,1 mm 5 m/s 756 mmHg 91%
    23:00 -18°C° 0,1 mm 5 m/s 757 mmHg 91%

    1 Martie, Joi

    Timp Temperatura Precipitaţii Vânt Presiune Umiditate
    00:00 -18°C° 0,1 mm 5 m/s 757 mmHg 91%
    01:00 -17°C° 0,1 mm 4 m/s 756 mmHg 91%
    02:00 -17°C° 0,1 mm 4 m/s 756 mmHg 92%
    03:00 -16°C° 0,1 mm 4 m/s 756 mmHg 92%
    04:00 -16°C° 0,1 mm 4 m/s 756 mmHg 92%
    05:00 -16°C° 0,1 mm 4 m/s 756 mmHg 92%
    06:00 -16°C° 0,1 mm 4 m/s 756 mmHg 92%
    07:00 -16°C° 0,1 mm 4 m/s 756 mmHg 92%
    08:00 -16°C° 0,1 mm 4 m/s 756 mmHg 92%
    09:00 -15°C° 0 mm 4 m/s 757 mmHg 91%
    10:00 -14°C° 0 mm 4 m/s 757 mmHg 91%
    11:00 -14°C° 0 mm 4 m/s 757 mmHg 91%
    12:00 -13°C° 0,3 mm 5 m/s 756 mmHg 91%
    13:00 -13°C° 0,3 mm 5 m/s 756 mmHg 92%
    14:00 -12°C° 0,3 mm 5 m/s 755 mmHg 92%
    15:00 -12°C° 0,5 mm 5 m/s 755 mmHg 92%
    16:00 -12°C° 0,5 mm 5 m/s 755 mmHg 92%
    17:00 -12°C° 0,5 mm 5 m/s 754 mmHg 92%
    18:00 -12°C° 0,5 mm 5 m/s 754 mmHg 93%
    19:00 -13°C° 0,5 mm 5 m/s 754 mmHg 93%
    20:00 -13°C° 0,5 mm 5 m/s 754 mmHg 93%
    21:00 -13°C° 0,3 mm 5 m/s 754 mmHg 93%
    22:00 -12°C° 0,3 mm 4 m/s 754 mmHg 93%
    23:00 -12°C° 0,3 mm 4 m/s 754 mmHg 93%

    2 Martie, Vineri

    Timp Temperatura Precipitaţii Vânt Presiune Umiditate
    00:00 -14°C° 0,2 mm 4 m/s 753 mmHg 93%
    01:00 -14°C° 0,2 mm 4 m/s 753 mmHg 93%
    02:00 -14°C° 0,2 mm 4 m/s 753 mmHg 93%
    03:00 -14°C° 0,1 mm 4 m/s 753 mmHg 93%
    04:00 -14°C° 0,1 mm 4 m/s 753 mmHg 94%
    05:00 -13°C° 0,1 mm 3 m/s 753 mmHg 94%
    06:00 -14°C° 0,1 mm 4 m/s 753 mmHg 94%
    07:00 -14°C° 0,1 mm 4 m/s 753 mmHg 93%
    08:00 -14°C° 0,1 mm 4 m/s 753 mmHg 93%
    09:00 -12°C° 0,1 mm 4 m/s 753 mmHg 92%
    10:00 -12°C° 0,1 mm 3 m/s 752 mmHg 92%
    11:00 -10°C° 0,1 mm 3 m/s 752 mmHg 91%
    12:00 -9°C° 0 mm 3 m/s 752 mmHg 91%
    13:00 -9°C° 0 mm 3 m/s 752 mmHg 90%
    14:00 -8°C° 0 mm 3 m/s 752 mmHg 90%
    15:00 -8°C° 0 mm 3 m/s 751 mmHg 91%
    16:00 -8°C° 0 mm 3 m/s 751 mmHg 92%
    17:00 -7°C° 0 mm 2 m/s 751 mmHg 92%
    18:00 -7°C° 0 mm 2 m/s 751 mmHg 93%
    19:00 -8°C° 0 mm 2 m/s 751 mmHg 94%
    20:00 -8°C° 0 mm 2 m/s 752 mmHg 95%
    21:00 -8°C° 0 mm 2 m/s 752 mmHg 95%
    22:00 -9°C° 0 mm 2 m/s 751 mmHg 95%
    23:00 -9°C° 0 mm 2 m/s 751 mmHg 95%
    Arată mai mult